Civil Air Patrol

Glenn L. Martin Composite Squadron

Welcome to the Glenn L. Martin Composite Squadron Civil Air Patrol

 

We are the official auxiliary of the United States Air Force.

Our 3 main missions are cadet programs, aerospace education and emergency services.

Click each link to learn more about each mission.

 

Here is a short video from National Headquarters about CAP

 

 


 

 
Current METAR for KMTN (Martin State Airport)

KMTN 212345Z 31006KT 10SM SCT140 19/07 A3007

 

Current TAF for KBWI (Baltimore Washington International)

TAF AMD KBWI 212051Z 2121/2224 32010G18KT P6SM FEW060 SCT200 FM220100 VRB04KT P6SM FEW100 SCT200 FM221500 09005KT P6SM SCT050 SCT200 FM221800 14008KT P6SM SCT050 SCT200